Weather History for Lander, WY

Change the Weather History Date:

Tuesday, March 19, 2013

  Actual Average Record
Temperature  
Mean Temperature 33 °F 37 °F  
Max Temperature 48 °F 49 °F 71 °F (1910)
Min Temperature 18 °F 25 °F -16 °F (1906)
Degree Days  
Heating Degree Days 32 28  
Month to date heating degree days 532 597  
Since 1 July heating degree days 5901 6301  
Cooling Degree Days 0 0  
Month to date cooling degree days 0 0  
Year to date cooling degree days 0 0  
Moisture  
Dew Point 7 °F    
Average Humidity 44    
Maximum Humidity 77    
Minimum Humidity 10    
Precipitation  
Precipitation 0.00 in 0.04 in 0.56 in (2006)
Month to date precipitation T 0.62  
Year to date precipitation 1.98 1.61  
Snow  
Snow 0.00 in 0.60 in - ()
Month to date snowfall T 8.9  
Since 1 July snowfall 52.2 62.5  
Snow Depth 0.00 in    
Sea Level Pressure  
Sea Level Pressure 30.14 in    
Wind  
Wind Speed 5 mph (NNW)    
Max Wind Speed 30 mph    
Max Gust Speed 37 mph    
Visibility 10 miles    
Events      
T = Trace of Precipitation, MM = Missing Value Source: NWS Daily Summary

Daily Weather History Graph

Daily Weather History Graph

Search for Another Location

Airport:

Trip Planner

Search our weather history database for the weather conditions in past years. The results will help you decide how hot, cold, wet, or windy it might be!

Date:

Astronomy

Mar. 19, 2013 Rise Set
Actual Time 7:19 AM MDT 7:26 PM MDT
Civil Twilight 6:51 AM MDT 7:54 PM MDT
Nautical Twilight 6:18 AM MDT 8:27 PM MDT
Astronomical Twilight 5:44 AM MDT 9:01 PM MDT
Moon 12:04 PM MDT (3/19) 2:23 AM MDT (3/19)
Length of Visible Light 13h 03m
Length of Day
12h 07m
Waxing Crescent, 50% of the Moon is Illuminated
Mar 19
Waxing Crescent
Mar 27
Full
Apr 2
Last Quarter
Apr 10
New
Apr 18
First Quarter

Hourly Weather History & Observations

Time (MDT) Temp. Windchill Dew Point Humidity Pressure Visibility Wind Dir Wind Speed Gust Speed Precip Events Conditions
12:53 AM 34.0 °F 20.5 °F 3.9 °F 28% 29.88 in 10.0 mi West 28.8 mph 42.6 mph N/A   Clear
1:53 AM 25.0 °F 12.6 °F 15.1 °F 66% 30.01 in 10.0 mi NNE 15.0 mph 21.9 mph N/A   Scattered Clouds
2:53 AM 21.9 °F 14.5 °F 16.0 °F 78% 30.07 in 10.0 mi West 5.8 mph - N/A   Clear
3:53 AM 23.0 °F - 15.1 °F 72% 30.06 in 10.0 mi Calm Calm - N/A   Clear
4:53 AM 23.0 °F 17.0 °F 14.0 °F 68% 30.05 in 10.0 mi Variable 4.6 mph - N/A   Clear
5:53 AM 19.9 °F - 12.9 °F 74% 30.09 in 10.0 mi Calm Calm - N/A   Clear
6:53 AM 19.0 °F 10.0 °F 12.9 °F 77% 30.13 in 10.0 mi West 6.9 mph - N/A   Clear
7:53 AM 21.0 °F 14.6 °F 10.9 °F 65% 30.16 in 10.0 mi West 4.6 mph - N/A   Clear
8:53 AM 27.0 °F 19.5 °F 14.0 °F 58% 30.17 in 10.0 mi ENE 6.9 mph - N/A   Clear
9:53 AM 30.9 °F - 12.9 °F 47% 30.19 in 10.0 mi Calm Calm - N/A   Clear
10:53 AM 35.1 °F 31.0 °F 8.1 °F 33% 30.17 in 10.0 mi ENE 4.6 mph - N/A   Clear
11:53 AM 36.0 °F - 7.0 °F 30% 30.17 in 10.0 mi Calm Calm - N/A   Clear
12:53 PM 41.0 °F 37.1 °F 6.1 °F 24% 30.14 in 10.0 mi East 5.8 mph - N/A   Clear
1:53 PM 44.1 °F 41.5 °F 1.9 °F 17% 30.15 in 10.0 mi Variable 4.6 mph - N/A   Clear
2:53 PM 44.1 °F 41.5 °F -0.9 °F 15% 30.16 in 10.0 mi Variable 4.6 mph - N/A   Clear
3:53 PM 46.0 °F 43.9 °F -2.9 °F 13% 30.13 in 10.0 mi Variable 4.6 mph - N/A   Clear
4:53 PM 48.0 °F - -8.0 °F 10% 30.13 in 10.0 mi North 15.0 mph 24.2 mph N/A   Clear
5:53 PM 45.0 °F 38.5 °F -0.9 °F 15% 30.18 in 10.0 mi NE 13.8 mph - N/A   Clear
6:53 PM 41.0 °F 35.8 °F 1.0 °F 19% 30.22 in 10.0 mi ENE 8.1 mph - N/A   Clear
7:53 PM 37.9 °F - -0.0 °F 20% 30.23 in 10.0 mi Calm Calm - N/A   Clear
8:53 PM 33.1 °F 25.5 °F 5.0 °F 31% 30.25 in 10.0 mi WSW 9.2 mph - N/A   Clear
9:53 PM 34.0 °F - 6.1 °F 31% 30.24 in 10.0 mi Calm Calm - N/A   Clear
10:53 PM 28.9 °F 22.8 °F 6.1 °F 38% 30.25 in 10.0 mi West 5.8 mph - N/A   Clear
11:53 PM 28.0 °F 20.8 °F 8.1 °F 43% 30.24 in 10.0 mi NW 6.9 mph - N/A   Clear